Change the Weather History Date:

Thursday, October 18, 2012

  Actual Average Record
Temperature  
Mean Temperature 44 °F 44 °F  
Max Temperature 46 °F 57 °F 81 °F (2005)
Min Temperature 42 °F 32 °F 12 °F (1930)
Degree Days  
Heating Degree Days 21 21  
Month to date heating degree days 342 305  
Since 1 July heating degree days 584 579  
Cooling Degree Days 0 0  
Month to date cooling degree days 0 0  
Year to date cooling degree days 764 523  
Moisture  
Dew Point 38 °F    
Average Humidity 83    
Maximum Humidity 89    
Minimum Humidity 76    
Precipitation  
Precipitation 0.36 in 0.07 in 2.00 in (1944)
Month to date precipitation 0.95 1.30  
Year to date precipitation 13.40 19.78  
Snow  
Snow 0.00 in - - ()
Month to date snowfall T  
Since 1 July snowfall T  
Snow Depth 0.00 in    
Sea Level Pressure  
Sea Level Pressure 29.49 in    
Wind  
Wind Speed 32 mph (NW)    
Max Wind Speed 45 mph    
Max Gust Speed 56 mph    
Visibility 10 miles    
Events Rain    
T = Trace of Precipitation, MM = Missing Value Source: NWS Daily Summary

Daily Weather History Graph

Daily Weather History Graph

Search for Another Location

Airport or City:

Trip Planner

Search our weather history database for the weather conditions in past years. The results will help you decide how hot, cold, wet, or windy it might be!

Date:

Astronomy

Oct. 18, 2012 Rise Set
Actual Time 7:54 AM CDT 6:42 PM CDT
Civil Twilight 7:24 AM CDT 7:12 PM CDT
Nautical Twilight 6:50 AM CDT 7:46 PM CDT
Astronomical Twilight 6:15 AM CDT 8:20 PM CDT
Moon 11:48 AM CDT (10/18) 9:07 PM CDT (10/18)
Length of Visible Light 11h 47m
Length of Day
10h 47m
Waxing Crescent, 14% of the Moon is Illuminated
Oct 18
Waxing Crescent
Oct 21
First Quarter
Oct 29
Full
Nov 6
Last Quarter
Nov 13
New

Hourly Weather History & Observations

Time (CDT) Temp. Windchill Dew Point Humidity Pressure Visibility Wind Dir Wind Speed Gust Speed Precip Events Conditions
12:53 AM 43.0 °F 33.8 °F 37.0 °F 80% 29.37 in 10.0 mi WNW 23.0 mph 35.7 mph 0.08 in Rain Light Rain
1:53 AM 43.0 °F 33.5 °F 37.0 °F 80% 29.36 in 10.0 mi WNW 24.2 mph 41.4 mph 0.07 in Rain Light Rain
2:53 AM 43.0 °F 32.4 °F 37.0 °F 80% 29.36 in 10.0 mi NW 31.1 mph 39.1 mph 0.01 in Rain Light Rain
3:53 AM 44.1 °F 34.6 °F 37.0 °F 76% 29.34 in 10.0 mi WNW 26.5 mph 44.9 mph 0.03 in   Overcast
4:53 AM 44.1 °F 34.2 °F 37.0 °F 76% 29.34 in 10.0 mi NW 28.8 mph 43.7 mph 0.00 in   Overcast
5:53 AM 44.1 °F 34.0 °F 37.0 °F 76% 29.34 in 10.0 mi WNW 29.9 mph 50.6 mph 0.01 in   Overcast
6:53 AM 43.0 °F 32.5 °F 37.0 °F 80% 29.34 in 10.0 mi NW 29.9 mph 49.5 mph 0.00 in   Overcast
7:53 AM 43.0 °F 31.7 °F 37.0 °F 80% 29.33 in 10.0 mi NW 35.7 mph 51.8 mph 0.00 in   Overcast
8:21 AM 42.8 °F 31.6 °F 35.6 °F 76% 29.32 in 10.0 mi NW 34.5 mph 50.6 mph 0.00 in   Overcast
8:53 AM 42.1 °F 30.3 °F 37.0 °F 82% 29.35 in 10.0 mi NW 36.8 mph 48.3 mph 0.00 in   Overcast
9:53 AM 42.1 °F 30.1 °F 37.0 °F 82% 29.37 in 10.0 mi NW 38.0 mph 48.3 mph 0.02 in   Overcast
10:53 AM 43.0 °F 31.8 °F 39.0 °F 86% 29.41 in 10.0 mi NNW 34.5 mph 48.3 mph 0.00 in   Overcast
11:53 AM 45.0 °F 34.6 °F 39.9 °F 82% 29.45 in 10.0 mi NNW 34.5 mph 50.6 mph 0.01 in   Overcast
12:53 PM 45.0 °F 34.0 °F 39.0 °F 80% 29.49 in 10.0 mi NNW 39.1 mph 51.8 mph 0.00 in   Overcast
1:53 PM 45.0 °F 34.6 °F 39.0 °F 80% 29.53 in 10.0 mi NNW 34.5 mph 50.6 mph N/A   Overcast
2:53 PM 45.0 °F 34.3 °F 37.9 °F 76% 29.57 in 10.0 mi NNW 36.8 mph 52.9 mph N/A   Overcast
3:53 PM 45.0 °F 34.4 °F 37.9 °F 76% 29.59 in 10.0 mi NNW 35.7 mph 47.2 mph 0.01 in   Overcast
4:53 PM 43.0 °F 31.8 °F 37.9 °F 82% 29.64 in 10.0 mi NNW 34.5 mph 47.2 mph 0.01 in Rain Light Rain
5:53 PM 43.0 °F 32.5 °F 37.9 °F 82% 29.65 in 10.0 mi NNW 29.9 mph 41.4 mph 0.03 in   Overcast
6:53 PM 43.0 °F 32.2 °F 39.0 °F 86% 29.66 in 10.0 mi NNW 32.2 mph 42.6 mph 0.03 in   Overcast
7:53 PM 43.0 °F 32.5 °F 39.0 °F 86% 29.68 in 10.0 mi NNW 29.9 mph 44.9 mph 0.03 in   Overcast
8:53 PM 43.0 °F 32.2 °F 39.0 °F 86% 29.69 in 10.0 mi NNW 32.2 mph 44.9 mph 0.03 in   Overcast
9:53 PM 43.0 °F 32.4 °F 37.9 °F 82% 29.71 in 10.0 mi NNW 31.1 mph 46.0 mph 0.02 in   Overcast
10:53 PM 42.1 °F 31.3 °F 37.9 °F 85% 29.72 in 10.0 mi NNW 29.9 mph 38.0 mph 0.03 in   Overcast
11:53 PM 42.1 °F 31.1 °F 37.0 °F 82% 29.73 in 10.0 mi NNW 31.1 mph 44.9 mph N/A   Overcast